Simultaneous Nadir Overpasses (SNOs) Predictions

Prediction of SNOs between GOES-17 and NOAA-19 Satellite Orbit:

Table of predicted SNOs for the next 14.0 days since TLE Epoch: 11/4/2023
Index Date Time (GOES-17) GOES-17 Lat,Lon NOAA-19 Lat,Lon Distance(km) Time Diff (sec)
1 11/04/2023 15:41:55 0.01,-104.68 -0.56,-102.15 288.53 80
2 11/07/2023 04:01:50 -0.00,-104.65 -0.52,-106.89 255.92 80
3 11/08/2023 03:47:03 -0.00,-104.65 0.14,-103.94 80.66 80
4 11/09/2023 03:34:57 -0.00,-104.65 0.86,-101.00 417.27 80
5 11/10/2023 16:06:54 0.00,-104.67 0.91,-108.66 454.57 80
6 11/11/2023 15:54:46 -0.00,-104.68 0.22,-105.71 117.69 80
7 11/12/2023 15:45:19 -0.00,-104.67 -0.47,-102.76 219.11 80
8 11/15/2023 04:05:16 0.01,-104.64 -0.63,-107.50 325.87 80
9 11/16/2023 03:50:28 0.01,-104.64 0.05,-104.55 10.72 80
10 11/17/2023 03:38:20 0.00,-104.63 0.68,-101.59 346.66 80
